Regional Weather Roundup
Issued by NWS

Home | Current Version | Previous Version | Text Only | Print | Product List | Glossary On
Versions: 1 2 3 4 5 6 7 8 9 10 11 12 13 14 15 16 17 18 19 20 21 22 23 24 25 26 27 28 29 30 31 32 33 34 35 36 37 38 39 40 41 42 43 44 45 46 47 48 49 50
000
ASHW40 PHFO 311343
RWRHI

WEATHER ROUNDUP FOR HAWAII
NATIONAL WEATHER SERVICE HONOLULU HI
300 AM HST THU JUL 31 2014

THIS IS AN AUTOMATED REPORT THAT HAS NOT BEEN QUALITY CONTROLLED.

NOTE..."FAIR" INDICATES FEW OR NO CLOUDS BELOW 12,000 FEET WITH NO
SIGNIFICANT WEATHER AND/OR OBSTRUCTIONS TO VISIBILITY.

* - THESE SITES REPORT LIMITED FIELDS

HIZ001>004-311400-
KAUAI-NIIHAU-

CITY           SKY/WX    TMP DP  RH WIND       PRES   REMARKS
LIHUE APT      PTCLDY    77  66  68 NE10      30.01F
PORT ALLEN*      N/A     75 N/A N/A E9          N/A
POIPU*           N/A     77 N/A N/A NE6G12      N/A
PRINCEVILLE*   NOT AVBL
KOKOLE POINT*  NOT AVBL
MOLOAA DAIRY*  NOT AVBL
WAIMEA HTS*      N/A     73  59  60 NE1G9       N/A
PUU OPAE*        N/A     66  57  72 CALM        N/A
PUU LUA*       NOT AVBL
MAKAHA RIDGE*  NOT AVBL
$$

HIZ005>011-311400-
OAHU-

CITY           SKY/WX    TMP DP  RH WIND       PRES   REMARKS
HONOLULU       PTCLDY    78  66  66 NE9       29.98F
KALAELOA       CLEAR     73  65  75 CALM      30.00F
KANEOHE MCB    PTCLDY    73  64  72 E10G17    29.99F
WHEELER FIELD  FAIR      72  66  79 E3        30.00F
BELLOWS*         N/A    N/A N/A N/A E16         N/A
KAHUKU*          N/A    N/A N/A N/A E9G18       N/A
WHEELER*       NOT AVBL
WAIANAE HARBOR NOT AVBL
DILLINGHAM*      N/A     66  64  94 CALM        N/A
KAHUKU TRN*      N/A     73  68  83 E7G15       N/A
KAWAILOA*      NOT AVBL
KII*             N/A     77  68  73 CALM        N/A
MAKUA RANGE*     N/A     72  64  78 SE5         N/A
OAHU FOREST NW   N/A     66  66 100 NE13G28     N/A
SCHOFIELD BRK*   N/A     66  64  94 MISG        N/A
SCHOFIELD S*   NOT AVBL
WAIANAE VLY*     N/A     73  63  68 NE9G21      N/A
KUAOKALA*        N/A     72  66  83 CALM        N/A
HONOULIUULI*   NOT AVBL
MOKUOLOE IS*     N/A    N/A N/A N/A MISG        N/A
PALEHUA*         N/A     79  66  65 CALM        N/A
WAIAWA PHB*    NOT AVBL
$$

HIZ012>013-311400-
MOLOKAI-

CITY           SKY/WX    TMP DP  RH WIND       PRES   REMARKS
MOLOKAI AIRPT  PTCLDY    74  70  87 NE8       29.99F
KALAUPAPA      NOT AVBL
MAKAPULAPAI*     N/A     77  68  73 E15G22      N/A
MOLOKAI 1*       N/A     66  61  82 E6G18       N/A
PUU ALII*        N/A     58  56  95 E2G9        N/A
$$

HIZ016-311400-
KAHOOLAWE-

CITY           SKY/WX    TMP DP  RH WIND       PRES   REMARKS
KAHOOLAWE*       N/A     68 N/A N/A NE8         N/A
HAKIOAWA*        N/A     69  65  86 MISG      30.11F
HONOKANAIA*      N/A     76  66  71 N7G16     29.99
KANELOA*         N/A     73  64  73 NE9G21    30.08F
KEALIALALO*      N/A    N/A N/A N/A E6G13     30.29
LUA MAKIKA*    NOT AVBL
$$

HIZ014>015-311400-
LANAI-

CITY           SKY/WX    TMP DP  RH WIND       PRES   REMARKS
LANAI CITY     FAIR      70  66  86 NE9       30.04F
LANAI 1*         N/A     70  70 100 NE15G25     N/A
$$

HIZ017>028-311400-
MAUI-

CITY           SKY/WX    TMP DP  RH WIND       PRES   REMARKS
KAHULUI        CLEAR     75  68  78 NE8       29.99F
KAPALUA-W MAUI NOT AVBL
HANA AIRPORT   CLOUDY    75  68  78 NE2       30.02S
HANA*            N/A     77 N/A N/A E6          N/A
HALEAKALA SUMM   N/A     46   0  14 SE8         N/A
MAALAEA BAY*   NOT AVBL
HALEAKALA*     NOT AVBL
KAUPO GAP*       N/A     63  45  51 SW5G16      N/A
KULA 1*          N/A    N/A N/A N/A NE5         N/A
$$

HIZ023>026-311400-
BIG ISLAND OF HAWAII COAST AND LOWER SLOPES-

CITY           SKY/WX    TMP DP  RH WIND       PRES   REMARKS
KAILUA KONA    CLOUDY    79  60  52 N12       29.94F
HILO           CLOUDY    73  63  70 SW5       29.99F
HONOKAA*       NOT AVBL
KAWAIHAE MWT*    N/A     77 N/A N/A NE6         N/A
KAWAIHAE*        N/A     79 N/A N/A NE2         N/A
SOUTH POINT*     N/A     68 N/A N/A N10         N/A
UPOLU AIRPORT*   N/A    N/A N/A N/A E14G20      N/A
KAMUELA*       SUNNY     63  61  94 NE17      30.07R
HAKALAU*         N/A     45  43  93 SW3         N/A
KALOKO-HONOKO*   N/A     72  63  73 E2        29.93F
PALI 2*          N/A     64  57  77 N13G21      N/A
KEALAKOMO*       N/A     79  66  65 NE10G17     N/A
KAUPULEHU*       N/A     70  55  60 NW6G12      N/A
KAPAPALA*        N/A     60  56  88 N3          N/A
LOWER KAHUKU*  NOT AVBL
PUHE CS*       NOT AVBL
PUHO CS*         N/A     73  62  68 E3          N/A
PTA KEAMUKU*     N/A     55  50  82 S5          N/A
WAIKOLOA*        N/A     70  55  60 E10G17      N/A
$$

HIZ027>028-311400-
BIG ISLAND OF HAWAII INTERIOR AND SUMMMITS-

CITY           SKY/WX    TMP DP  RH WIND       PRES   REMARKS
BRADSHAW FIELD CLOUDY    52  31  45 E3        30.30F
MK VISITOR CEN   N/A      0   0 100 MISG        N/A
MAUNA KEA*       N/A     39   3  22 SW2         N/A
MAUNA LOA*       N/A     43   3  19 MISG        N/A
MAUNA LOA 1*     N/A    N/A N/A N/A MISG        N/A
PTA KIPUKA*      N/A     48  45  87 S3          N/A
PTA RANGE 17*    N/A     54  46  76 E7G14       N/A
PTA WEST*        N/A     55  48  76 SE7G16      N/A
NENE CABIN*    NOT AVBL
AHUMOA*          N/A    N/A N/A N/A SE8         N/A
PTA PORTABLE*  NOT AVBL
PUU MALI*      NOT AVBL
$$

HIC003-311400-
NORTHWEST ISLANDS-

CITY           SKY/WX    TMP DP  RH WIND       PRES   REMARKS
MIDWAY ISLAND  CLEAR     79  75  89 W7        30.03F
MIDWAY NOS*    NOT AVBL
FRENCH FRIGATE NOT AVBL
$$

PHZ110>124-180-311400-
BUOY REPORTS

STATION/POSITION TIME  TEMP    WIND        PRES    WAVE   SWELL
                       AIR SEA DIR/SP/G            HT/PER HT/DIR
                 (UTC) (F)     (DEG/KT/KT) (MB)    (FT/S) (FT/D)
BUOY 51001       NOT AVBL
BUOY 51101       1300   79 80   90/ 12/ 14 1016.6F   5/ 9   5/110
BUOY 51100       1300   76 78   90/ 10/ 14 1017.0F
BUOY 51003       1300   80 81   80/ 12/ 14 1014.7F   5/ 7   5
BUOY 51004       1235   79 80   70/ 17/ 19 1012.9F   9/ 9   5/ 90
BARBERS PT BUOY  NOT AVBL
WAIMEA BAY BUOY  1300      80                N/A     3/ 5
KAILUA BAY BUOY  1300      80                N/A     5/ 5   2/ 90
LANAI BUOY       1300      81                N/A     3/13   2/190
BARBERS PT 2     1300      81                N/A     4/13   2/210
PAUWELA MAUI     1300      79                N/A     5/10   2/100
HILO             NOT AVBL
KANEOHE BAY BUOY 1300      79                N/A     4/ 8
HANALEI KAUAI    NOT AVBL
KAHULUI HARBOR   1300   77 80   20/  8/ 12 1015.3F
HONOLULU HARBOR  1300   78      40/  2/  5 1015.4F
KILO NALU        NOT AVBL
HILO HARBOR      1300   73     170/  2/  4 1014.9F
MOKUOLOE         1300      82              1015.7F
NAWILIWILI       1300      82                N/A
WHOTS BUOY       NOT AVBL
BUOY 51028       NOT AVBL
$$

......................KEY........................................
  SKY/WX - SKY CONDITIONS/PRESENT WEATHER
  TMP    - TEMPERATURE IN FAHRENHEIT
  DWPT   - DEWPOINT IN FAHRENHEIT
  RH     - RELATIVE HUMIDITY IN PERCENT
  WIND   - DIRECTION AND SPEED /MPH FOR ISLANDS...KTS FOR BUOYS/
  PRES   - MEAN SEA LEVEL PRESSURE IN INCHES OF HG
  VSB    - VISIBILITY IN MILES
  HX     - HEAT INDEX
  WCI    - WIND CHILL INDEX
  VRB    - VARIABLE WIND DIRECTION
  N/A    - NOT AVAILABLE



USA.gov is the U.S. government's official web portal to all federal, state and local government web resources and services.